Weather History for KOWD - March, 2014

Change the Weather History Date:

Thursday, March 13, 2014

  Actual Average Record
Temperature  
Mean Temperature 28 °F -  
Max Temperature 37 °F 40 °F 73 °F (2012)
Min Temperature 17 °F 24 °F 12 °F (1998)
Degree Days  
Heating Degree Days 38    
Moisture  
Dew Point 18 °F    
Average Humidity 77    
Maximum Humidity 96    
Minimum Humidity 42    
Precipitation  
Precipitation 0.07 in - - ()
Sea Level Pressure  
Sea Level Pressure 29.31 in    
Wind  
Wind Speed 12 mph (NW)    
Max Wind Speed 22 mph    
Max Gust Speed 33 mph    
Visibility 4 miles    
Events Rain , Snow    
Averages and records for this station are not official NWS values.
T = Trace of Precipitation, MM = Missing Value Source: NWS Daily Summary

Daily Weather History Graph

Daily Weather History Graph

Search for Another Location

Airport or City:

Trip Planner

Search our weather history database for the weather conditions in past years. The results will help you decide how hot, cold, wet, or windy it might be!

Date:

Astronomy

Mar. 13, 2014 Rise Set
Actual Time 7:00 AM EDT 6:48 PM EDT
Civil Twilight 6:32 AM EDT 7:16 PM EDT
Nautical Twilight 5:59 AM EDT 7:49 PM EDT
Astronomical Twilight 5:26 AM EDT 8:22 PM EDT
Moon 4:09 PM EDT (3/13) 5:07 AM EDT (3/13)
Length of Visible Light 12h 44m
Length of Day
11h 48m
Waxing Gibbous, 91% of the Moon is Illuminated
Mar 13
Waxing Gibbous
Mar 16
Full
Mar 23
Last Quarter
Mar 30
New
Apr 7
First Quarter

Hourly Weather History & Observations

Time (EDT) Temp. Windchill Dew Point Humidity Pressure Visibility Wind Dir Wind Speed Gust Speed Precip Events Conditions
12:53 AM 37.0 °F - 35.1 °F 93% 29.02 in 10.0 mi North - - 0.00 in   Overcast
1:53 AM 36.0 °F 29.0 °F 34.0 °F 93% 29.00 in 8.0 mi NNE 9.2 mph - 0.02 in Rain Light Rain
2:11 AM 36.0 °F 29.6 °F 34.0 °F 93% 29.00 in 10.0 mi North 8.1 mph - 0.00 in   Overcast
2:53 AM 35.1 °F 26.4 °F 32.0 °F 89% 29.05 in 10.0 mi North 12.7 mph 18.4 mph 0.00 in Rain Light Rain
2:57 AM 34.0 °F 27.2 °F 30.9 °F 89% 29.06 in 10.0 mi North 8.1 mph 19.6 mph 0.00 in   Overcast
3:11 AM 33.1 °F 26.1 °F 30.9 °F 92% 29.04 in 1.8 mi North 8.1 mph 18.4 mph 0.00 in Snow Light Snow
3:27 AM 32.0 °F 25.6 °F 30.9 °F 96% 29.04 in 1.8 mi North 6.9 mph 17.3 mph 0.01 in Snow Light Snow
3:35 AM 32.0 °F 24.8 °F 30.0 °F 92% 29.07 in 2.0 mi NNW 8.1 mph - 0.01 in Snow Light Snow
3:45 AM 32.0 °F 26.4 °F 30.0 °F 92% 29.06 in 5.0 mi Variable 5.8 mph - 0.01 in Snow Light Snow
3:53 AM 32.0 °F 25.6 °F 30.0 °F 92% 29.06 in 3.0 mi North 6.9 mph - 0.01 in Snow Light Snow
4:02 AM 30.9 °F 24.3 °F 28.9 °F 92% 29.09 in 2.5 mi North 6.9 mph - 0.00 in Snow Light Snow
4:11 AM 30.9 °F 22.2 °F 30.0 °F 96% 29.08 in 1.0 mi North 10.4 mph - 0.00 in Snow Light Snow
4:36 AM 28.9 °F 17.7 °F 26.1 °F 89% 29.10 in 3.0 mi NNW 15.0 mph 25.3 mph 0.00 in Snow Light Snow
4:44 AM 28.9 °F 19.2 °F 25.0 °F 85% 29.11 in 4.0 mi North 11.5 mph 21.9 mph 0.00 in   Overcast
4:53 AM 28.9 °F 18.2 °F 26.1 °F 89% 29.12 in 3.0 mi NNW 13.8 mph 21.9 mph 0.00 in Snow Light Snow
5:34 AM 27.0 °F 16.7 °F 23.0 °F 85% 29.14 in 2.5 mi NNW 11.5 mph 18.4 mph 0.00 in Snow Light Snow
5:41 AM 27.0 °F 18.7 °F 24.1 °F 89% 29.15 in 1.8 mi NNW 8.1 mph - 0.02 in Snow Light Snow
5:53 AM 26.1 °F 17.6 °F 24.1 °F 92% 29.16 in 1.8 mi NW 8.1 mph - 0.02 in Snow Light Snow
6:03 AM 26.1 °F 15.0 °F 23.0 °F 88% 29.16 in 1.5 mi NNW 12.7 mph 19.6 mph 0.00 in Snow Light Snow
6:16 AM 25.0 °F 12.6 °F 21.9 °F 88% 29.16 in 2.0 mi NNW 15.0 mph 21.9 mph 0.00 in Snow Light Snow
6:27 AM 25.0 °F 12.6 °F 19.9 °F 81% 29.17 in 4.0 mi NNW 15.0 mph 21.9 mph 0.00 in Snow Light Snow
6:43 AM 24.1 °F 12.5 °F 19.9 °F 84% 29.19 in 2.5 mi NW 12.7 mph 18.4 mph 0.00 in Snow Light Snow
6:51 AM 23.0 °F 13.1 °F 19.4 °F 86% 29.20 in 1.0 mi NW 9.2 mph 20.7 mph 0.00 in Snow Light Snow
6:53 AM 23.0 °F 13.1 °F 19.9 °F 88% 29.20 in 1.0 mi NW 9.2 mph 20.7 mph 0.00 in Snow Light Snow
7:07 AM 21.9 °F 7.8 °F 18.0 °F 85% 29.21 in 2.0 mi NW 17.3 mph 25.3 mph 0.00 in Snow Light Snow
7:15 AM 21.9 °F 7.8 °F 17.1 °F 82% 29.21 in 6.0 mi NW 17.3 mph 26.5 mph 0.00 in Snow Light Snow
7:36 AM 21.9 °F 11.0 °F 17.1 °F 82% 29.23 in 4.0 mi NW 10.4 mph - 0.00 in Snow Light Snow
7:45 AM 21.9 °F 9.8 °F 18.0 °F 85% 29.24 in 2.0 mi NW 12.7 mph - 0.00 in Snow Light Snow
7:53 AM 21.9 °F 9.2 °F 17.1 °F 82% 29.25 in 1.5 mi WNW 13.8 mph - 0.00 in Snow Light Snow
8:30 AM 21.0 °F 9.9 °F 16.0 °F 81% 29.28 in 0.8 mi NW 10.4 mph 21.9 mph 0.00 in Snow Light Snow
8:53 AM 19.9 °F 6.2 °F 15.1 °F 81% 29.30 in 0.5 mi WNW 15.0 mph 24.2 mph 0.00 in Snow Snow
9:44 AM 18.0 °F 4.8 °F 12.9 °F 81% 29.34 in 1.2 mi WNW 12.7 mph 26.5 mph 0.02 in Snow Light Snow
9:53 AM 18.0 °F 4.2 °F 12.9 °F 81% 29.35 in 1.2 mi WNW 13.8 mph - 0.02 in Snow Light Snow
10:53 AM 18.0 °F 5.4 °F 12.0 °F 78% 29.39 in 2.0 mi WNW 11.5 mph - 0.00 in Snow Light Snow
11:06 AM 18.0 °F 4.8 °F 10.9 °F 74% 29.39 in 1.5 mi NW 12.7 mph 23.0 mph 0.00 in Snow Light Snow
11:53 AM 18.0 °F 4.2 °F 12.0 °F 78% 29.41 in 1.5 mi WNW 13.8 mph 23.0 mph 0.00 in Snow Light Snow
12:00 PM 18.0 °F 4.8 °F 12.9 °F 81% 29.41 in 0.8 mi WNW 12.7 mph - 0.00 in Snow Light Snow
12:28 PM 18.0 °F 2.2 °F 12.0 °F 78% 29.43 in 1.2 mi WNW 18.4 mph 23.0 mph 0.00 in Snow Light Snow
12:51 PM 19.4 °F 4.5 °F 10.4 °F 68% 29.44 in 3.0 mi WNW 17.3 mph 24.2 mph 0.00 in Snow Light Snow
12:53 PM 19.0 °F 4.0 °F 10.9 °F 71% 29.45 in 3.0 mi NW 17.3 mph 24.2 mph 0.00 in Snow Light Snow
1:18 PM 19.0 °F 3.6 °F 10.0 °F 68% 29.45 in 4.0 mi NW 18.4 mph 24.2 mph 0.00 in Snow Light Snow
1:46 PM 19.0 °F 3.2 °F 8.1 °F 62% 29.47 in 7.0 mi WNW 19.6 mph 28.8 mph 0.00 in   Overcast
1:53 PM 19.9 °F 5.2 °F 8.1 °F 60% 29.47 in 7.0 mi NW 17.3 mph 28.8 mph 0.00 in   Overcast
2:53 PM 21.0 °F 5.7 °F 6.1 °F 53% 29.50 in 9.0 mi NW 19.6 mph 32.2 mph N/A   Overcast
3:53 PM 21.0 °F 5.4 °F 8.1 °F 57% 29.54 in 9.0 mi NW 20.7 mph 31.1 mph 0.00 in   Overcast
4:53 PM 21.9 °F 8.2 °F 7.0 °F 53% 29.57 in 10.0 mi NW 16.1 mph 25.3 mph N/A   Mostly Cloudy
5:53 PM 21.0 °F 5.7 °F 6.1 °F 53% 29.62 in 7.0 mi NW 19.6 mph 33.4 mph 0.00 in Snow Light Snow
6:53 PM 19.9 °F 7.3 °F 5.0 °F 52% 29.69 in 10.0 mi NW 12.7 mph 20.7 mph 0.00 in   Mostly Cloudy
7:53 PM 19.9 °F 3.9 °F 1.9 °F 46% 29.76 in 10.0 mi NW 20.7 mph 26.5 mph N/A   Overcast
8:53 PM 19.0 °F 2.4 °F -0.9 °F 42% 29.83 in 9.0 mi NW 21.9 mph 28.8 mph 0.00 in Snow Light Snow
9:53 PM 19.0 °F 4.0 °F -0.9 °F 42% 29.88 in 10.0 mi NW 17.3 mph 26.5 mph 0.00 in   Scattered Clouds
10:53 PM 18.0 °F 4.8 °F 1.0 °F 48% 29.92 in 10.0 mi WNW 12.7 mph 19.6 mph N/A   Clear
11:53 PM 17.1 °F 5.0 °F -0.9 °F 45% 29.95 in 10.0 mi WNW 10.4 mph - N/A   Clear